SCP
0 0 0 0 0 0 0 0 0 0 0 0 0 0 0 0 0 0 0 0 0 0
0 0 0 0 0 0 0 0 0 0 0 0 0 0 0 0 0 0 0 0 0 0
0 0 0 0 0 0 0 0 0 0 0 0 0 0 0 0 0 0 0 0 0 0
0 0 0 0 0 0 0 0 0 0 0 0 0 0 0 0 0 0 0 0 0 0
0 0 0 0 0 0 0 0 0 0 0 0 0 0 0 0 0 0 0 0 0 0
0 0 0 0 0 0 0 0 0 0 0 0 0 0 0 0 0 0 0 0 0 0
0 0 0 0 0 0 0 0 0 0 0 0 0 0 0 0 0 0 0 0 0 0
0 0 0 0 0 0 0 0 0 0 0 0 0 0 0 0 0 0 0 0 0 0
0 0 0 0 0 0 0 0 0 0 0 0 0 0 0 0 0 0 0 0 0 0
0 0 0 0 0 0 0 0 0 0 0 0 0 0 0 0 0 0 0 0 0 -0
0 0 0 0 0 0 0 0 0 0 0 0 0 0 0 0 0 0 0 0 -0 -0
0 0 0 0 0 0 0 0 0 0 0 0 0 0 0 0 0 0 0 0 0 0
0 0 0 0 0 0 0 0 0 0 0 0 0 0 0 0 0 0 0 0 0 0
0 0 0 0 0 0 0 0 0 0 0 0 0 0 0 0 0 0 0 0 0 0
Wind_Speed_500mb
60 58 54 47 41 36 31 26 21 14 11 11 14 18 21 23 25 27 30 32 35 37
63 58 52 46 40 34 29 23 18 12 9 12 15 17 18 18 20 22 26 29 31 34
60 52 47 44 40 34 27 20 14 9 8 9 10 10 11 15 18 22 26 29 32 38
58 53 48 43 38 31 24 18 12 7 5 4 5 9 14 17 20 24 26 30 36 43
60 57 53 46 38 31 24 18 11 5 3 4 7 11 14 17 22 25 30 35 41 47
66 62 54 48 41 34 25 18 12 7 5 5 10 13 15 19 25 30 35 40 45 50
71 63 56 49 42 34 27 21 14 9 5 7 12 17 18 21 26 31 35 40 46 51
70 64 59 53 46 37 30 23 16 11 11 11 15 19 20 22 27 29 34 40 45 51
75 72 65 58 50 42 34 24 20 20 17 16 17 21 21 23 25 29 34 39 45 52
82 78 69 60 53 43 32 29 28 27 23 21 22 23 24 25 26 30 34 39 47 53
87 79 71 64 54 44 35 39 36 33 29 26 27 29 28 27 30 32 34 39 46 53
90 83 76 67 54 49 40 46 42 36 34 31 34 33 29 31 32 33 35 40 43 49
91 83 75 65 56 41 50 49 43 41 36 39 37 34 35 35 36 36 38 42 43 46
88 83 74 61 47 51 57 49 46 41 45 43 38 40 39 38 39 38 40 44 46 45
Wind_Direction_500mb
176 173 170 167 164 161 157 149 137 127 108 73 54 39 30 20 14 12 5 4 359 354
180 179 174 169 166 163 158 152 142 130 89 55 36 22 14 9 2 2 356 355 353 350
181 179 178 176 173 168 162 152 140 115 67 42 23 6 0 357 359 354 352 350 350 345
183 182 181 178 174 169 164 153 144 115 63 13 358 353 350 350 353 349 348 346 346 343
190 188 186 182 178 174 171 162 153 155 214 301 337 346 347 345 347 346 345 344 343 338
193 192 190 187 183 181 177 175 185 214 255 311 340 345 346 345 344 344 341 339 335 331
197 195 193 191 188 185 185 193 205 221 255 316 336 341 338 337 337 339 334 331 328 328
200 198 196 194 192 192 197 203 213 232 253 290 319 328 327 326 326 327 327 328 331 333
202 201 200 197 197 198 203 209 234 237 251 274 300 314 307 307 314 319 323 330 337 336
206 205 202 201 200 202 209 229 232 240 250 266 285 295 289 295 304 314 321 333 338 337
210 208 205 203 202 207 218 232 234 239 249 262 275 282 277 291 299 308 319 331 336 336
213 210 207 205 206 217 222 231 236 243 249 259 269 270 278 284 292 301 314 326 330 334
217 214 212 208 217 224 226 232 238 244 252 260 264 271 273 280 287 298 312 318 324 330
221 216 212 215 232 223 226 232 240 249 253 257 269 269 271 277 286 298 305 312 319 325
Wind_Speed_850mb
60 58 54 47 41 36 31 26 21 14 11 11 14 18 21 23 25 27 30 32 35 37
63 58 52 46 40 34 29 23 18 12 9 12 15 17 18 18 20 22 26 29 31 34
60 52 47 44 40 34 27 20 14 9 8 9 10 10 11 15 18 22 26 29 32 38
58 53 48 43 38 31 24 18 12 7 5 4 5 9 14 17 20 24 26 30 36 43
60 57 53 46 38 31 24 18 11 5 3 4 7 11 14 17 22 25 30 35 41 47
66 62 54 48 41 34 25 18 12 7 5 5 10 13 15 19 25 30 35 40 45 50
71 63 56 49 42 34 27 21 14 9 5 7 12 17 18 21 26 31 35 40 46 51
70 64 59 53 46 37 30 23 16 11 11 11 15 19 20 22 27 29 34 40 45 51
75 72 65 58 50 42 34 24 20 20 17 16 17 21 21 23 25 29 34 39 45 52
82 78 69 60 53 43 32 29 28 27 23 21 22 23 24 25 26 30 34 39 47 53
87 79 71 64 54 44 35 39 36 33 29 26 27 29 28 27 30 32 34 39 46 53
90 83 76 67 54 49 40 46 42 36 34 31 34 33 29 31 32 33 35 40 43 49
91 83 75 65 56 41 50 49 43 41 36 39 37 34 35 35 36 36 38 42 43 46
88 83 74 61 47 51 57 49 46 41 45 43 38 40 39 38 39 38 40 44 46 45
Wind_Direction_850mb
176 173 170 167 164 161 157 149 137 127 108 73 54 39 30 20 14 12 5 4 359 354
180 179 174 169 166 163 158 152 142 130 89 55 36 22 14 9 2 2 356 355 353 350
181 179 178 176 173 168 162 152 140 115 67 42 23 6 0 357 359 354 352 350 350 345
183 182 181 178 174 169 164 153 144 115 63 13 358 353 350 350 353 349 348 346 346 343
190 188 186 182 178 174 171 162 153 155 214 301 337 346 347 345 347 346 345 344 343 338
193 192 190 187 183 181 177 175 185 214 255 311 340 345 346 345 344 344 341 339 335 331
197 195 193 191 188 185 185 193 205 221 255 316 336 341 338 337 337 339 334 331 328 328
200 198 196 194 192 192 197 203 213 232 253 290 319 328 327 326 326 327 327 328 331 333
202 201 200 197 197 198 203 209 234 237 251 274 300 314 307 307 314 319 323 330 337 336
206 205 202 201 200 202 209 229 232 240 250 266 285 295 289 295 304 314 321 333 338 337
210 208 205 203 202 207 218 232 234 239 249 262 275 282 277 291 299 308 319 331 336 336
213 210 207 205 206 217 222 231 236 243 249 259 269 270 278 284 292 301 314 326 330 334
217 214 212 208 217 224 226 232 238 244 252 260 264 271 273 280 287 298 312 318 324 330
221 216 212 215 232 223 226 232 240 249 253 257 269 269 271 277 286 298 305 312 319 325